Time,TemperatureF,DewpointF,PressureIn,WindDirection,WindDirectionDegrees,WindSpeedMPH,WindSpeedGustMPH,Humidity,HourlyPrecipIn,Conditions,Clouds,dailyrainin,SolarRadiationWatts/m^2,SoftwareType,DateUTC
2013-03-03 00:00:00,17.0,15.0,-100.00,North,-999,0.0,0.0,92,0.00,,,-99.99,0.000000,,2013-03-03 08:00:00,
2013-03-03 00:54:00,17.0,15.0,-100.00,North,-999,0.0,0.0,92,0.00,,,-99.99,0.000000,,2013-03-03 08:54:00,
2013-03-03 01:00:00,18.0,17.0,-100.00,North,-999,0.0,0.0,94,0.00,,,-99.99,0.000000,,2013-03-03 09:00:00,
2013-03-03 02:00:00,19.0,18.0,-100.00,North,-999,0.0,0.0,95,0.00,,,-99.99,0.000000,,2013-03-03 10:00:00,
2013-03-03 02:52:00,19.0,18.0,-100.00,North,-999,0.0,0.0,95,0.00,,,-99.99,0.000000,,2013-03-03 10:52:00,
2013-03-03 03:00:00,19.0,18.0,-100.00,North,-999,0.0,0.0,95,0.00,,,-99.99,0.000000,,2013-03-03 11:00:00,
2013-03-03 03:52:00,19.0,18.0,-100.00,North,-999,0.0,0.0,95,0.00,,,-99.99,0.000000,,2013-03-03 11:52:00,
2013-03-03 04:00:00,19.0,18.0,-100.00,North,-999,0.0,0.0,95,0.01,,,-99.99,0.000000,,2013-03-03 12:00:00,
2013-03-03 05:00:00,19.0,18.0,-100.00,North,-999,0.0,0.0,95,0.00,,,-99.99,0.000000,,2013-03-03 13:00:00,
2013-03-03 06:00:00,19.0,18.0,-100.00,North,-999,0.0,0.0,95,0.00,,,-99.99,0.000000,,2013-03-03 14:00:00,
2013-03-03 08:00:00,20.0,19.0,-100.00,North,-999,0.0,0.0,95,0.00,,,-99.99,51.000000,,2013-03-03 16:00:00,
2013-03-03 09:00:00,22.0,21.0,-100.00,North,-999,0.0,0.0,94,0.00,,,-99.99,137.000000,,2013-03-03 17:00:00,
2013-03-03 10:00:00,24.0,22.0,-100.00,North,-999,0.0,0.0,93,0.00,,,-99.99,286.000000,,2013-03-03 18:00:00,
2013-03-03 13:00:00,25.0,24.0,-100.00,North,-999,0.0,0.0,94,0.03,,,-99.99,259.000000,,2013-03-03 21:00:00,
2013-03-03 13:52:00,25.0,24.0,-100.00,North,-999,0.0,0.0,94,0.03,,,-99.99,259.000000,,2013-03-03 21:52:00,
2013-03-03 15:00:00,30.0,28.0,-100.00,North,-999,0.0,0.0,91,0.00,,,-99.99,533.000000,,2013-03-03 23:00:00,
2013-03-03 17:00:00,25.0,23.0,-100.00,North,-999,0.0,0.0,92,0.00,,,-99.99,145.000000,,2013-03-04 01:00:00,
2013-03-03 17:52:00,25.0,23.0,-100.00,North,-999,0.0,0.0,92,0.00,,,-99.99,145.000000,,2013-03-04 01:52:00,
2013-03-03 18:00:00,23.0,22.0,-100.00,North,-999,0.0,0.0,94,0.02,,,-99.99,76.000000,,2013-03-04 02:00:00,
2013-03-03 18:52:00,23.0,22.0,-100.00,North,-999,0.0,0.0,94,0.02,,,-99.99,76.000000,,2013-03-04 02:52:00,
2013-03-03 19:00:00,22.0,21.0,-100.00,North,-999,0.0,0.0,95,0.01,,,-99.99,0.000000,,2013-03-04 03:00:00,
2013-03-03 19:52:00,22.0,21.0,-100.00,North,-999,0.0,0.0,95,0.01,,,-99.99,0.000000,,2013-03-04 03:52:00,
2013-03-03 20:00:00,17.0,16.0,-100.00,North,-999,0.0,0.0,94,0.00,,,-99.99,0.000000,,2013-03-04 04:00:00,
2013-03-03 20:52:00,17.0,16.0,-100.00,North,-999,0.0,0.0,94,0.00,,,-99.99,0.000000,,2013-03-04 04:52:00,
2013-03-03 21:00:00,17.0,16.0,-100.00,North,-999,0.0,0.0,94,0.00,,,-99.99,0.000000,,2013-03-04 05:00:00,
2013-03-03 22:00:00,18.0,17.0,-100.00,North,-999,0.0,0.0,94,0.00,,,-99.99,0.000000,,2013-03-04 06:00:00,
2013-03-03 23:00:00,18.0,17.0,-100.00,North,-999,0.0,0.0,94,0.00,,,-99.99,0.000000,,2013-03-04 07:00:00,
2013-03-03 23:52:00,18.0,17.0,-100.00,North,-999,0.0,0.0,94,0.00,,,-99.99,0.000000,,2013-03-04 07:52:00,